• In Hungary
  • List of Countries
  • For 7 days
  • Water Temperature
  • Satellite Maps
  • Weather Map
  • News
  • Weather Widgets
  • user-avatar
    Login

    Hourly Weather Sinesti

    Today, 19 October, Friday

    Time Temperature Precipitation Wind Pressure Humidity
    00:00 +13°C° 0 mm 0 mps 738 mmHg 55%
    01:00 +12°C° 0 mm 0 mps 738 mmHg 57%
    02:00 +12°C° 0 mm 0 mps 738 mmHg 60%
    03:00 +12°C° 0 mm 0 mps 738 mmHg 61%
    04:00 +12°C° 0 mm 0 mps 738 mmHg 62%
    05:00 +12°C° 0 mm 0 mps 738 mmHg 63%
    06:00 +12°C° 0 mm 0 mps 738 mmHg 62%
    07:00 +13°C° 0 mm 0 mps 738 mmHg 60%
    08:00 +13°C° 0 mm 0 mps 738 mmHg 59%
    09:00 +15°C° 0 mm 0 mps 738 mmHg 54%
    10:00 +18°C° 0 mm 1 mps 738 mmHg 50%
    11:00 +19°C° 0 mm 1 mps 738 mmHg 45%
    12:00 +20°C° 0 mm 1 mps 738 mmHg 44%
    13:00 +20°C° 0 mm 1 mps 738 mmHg 43%
    14:00 +20°C° 0 mm 1 mps 738 mmHg 42%
    15:00 +20°C° 0 mm 1 mps 738 mmHg 44%
    16:00 +19°C° 0 mm 1 mps 738 mmHg 46%
    17:00 +18°C° 0 mm 1 mps 738 mmHg 48%
    18:00 +18°C° 0 mm 1 mps 738 mmHg 49%
    19:00 +16°C° 0 mm 1 mps 738 mmHg 50%
    20:00 +16°C° 0 mm 1 mps 738 mmHg 51%
    21:00 +16°C° 0 mm 1 mps 738 mmHg 53%
    22:00 +15°C° 0 mm 2 mps 738 mmHg 55%
    23:00 +15°C° 0 mm 2 mps 738 mmHg 57%

    Tomorrow, 20 October, Saturday

    Time Temperature Precipitation Wind Pressure Humidity
    00:00 +14°C° 0 mm 2 mps 738 mmHg 60%
    01:00 +14°C° 0 mm 2 mps 738 mmHg 64%
    02:00 +13°C° 0 mm 2 mps 738 mmHg 68%
    03:00 +13°C° 0 mm 2 mps 738 mmHg 71%
    04:00 +12°C° 0 mm 2 mps 738 mmHg 73%
    05:00 +11°C° 0 mm 3 mps 738 mmHg 76%
    06:00 +11°C° 0 mm 3 mps 739 mmHg 75%
    07:00 +12°C° 0 mm 3 mps 739 mmHg 74%
    08:00 +12°C° 0 mm 3 mps 739 mmHg 73%
    09:00 +14°C° 0 mm 3 mps 739 mmHg 66%
    10:00 +15°C° 0 mm 4 mps 739 mmHg 59%
    11:00 +18°C° 0 mm 4 mps 740 mmHg 51%
    12:00 +19°C° 0 mm 4 mps 740 mmHg 48%
    13:00 +20°C° 0 mm 4 mps 739 mmHg 45%
    14:00 +20°C° 0 mm 5 mps 739 mmHg 42%
    15:00 +19°C° 0 mm 4 mps 739 mmHg 45%
    16:00 +19°C° 0 mm 4 mps 739 mmHg 48%
    17:00 +18°C° 0 mm 3 mps 739 mmHg 51%
    18:00 +17°C° 0 mm 3 mps 739 mmHg 55%
    19:00 +16°C° 0 mm 3 mps 740 mmHg 59%
    20:00 +14°C° 0 mm 3 mps 740 mmHg 63%
    21:00 +14°C° 0 mm 3 mps 740 mmHg 67%
    22:00 +13°C° 0 mm 3 mps 740 mmHg 70%
    23:00 +13°C° 0 mm 3 mps 740 mmHg 73%

    Day after tomorrow, 21 October, Sunday

    Time Temperature Precipitation Wind Pressure Humidity
    00:00 +12°C° 0 mm 3 mps 740 mmHg 76%
    01:00 +12°C° 0 mm 3 mps 740 mmHg 80%
    02:00 +11°C° 0 mm 3 mps 739 mmHg 83%
    03:00 +11°C° 0 mm 3 mps 739 mmHg 83%
    04:00 +11°C° 0 mm 3 mps 739 mmHg 84%
    05:00 +10°C° 0 mm 3 mps 739 mmHg 85%
    06:00 +11°C° 0.1 mm 3 mps 739 mmHg 82%
    07:00 +11°C° 0.1 mm 4 mps 739 mmHg 78%
    08:00 +11°C° 0.1 mm 4 mps 739 mmHg 75%
    09:00 +12°C° 0.2 mm 4 mps 739 mmHg 70%
    10:00 +12°C° 0.2 mm 4 mps 739 mmHg 66%
    11:00 +12°C° 0.2 mm 4 mps 740 mmHg 61%
    12:00 +13°C° 0.1 mm 4 mps 739 mmHg 56%
    13:00 +13°C° 0.1 mm 4 mps 739 mmHg 52%
    14:00 +13°C° 0.1 mm 4 mps 739 mmHg 47%
    15:00 +13°C° 0 mm 4 mps 739 mmHg 48%
    16:00 +12°C° 0 mm 3 mps 739 mmHg 48%
    17:00 +12°C° 0 mm 3 mps 739 mmHg 49%
    18:00 +11°C° 0 mm 3 mps 739 mmHg 51%
    19:00 +11°C° 0 mm 3 mps 740 mmHg 53%
    20:00 +10°C° 0 mm 3 mps 740 mmHg 56%
    21:00 +10°C° 0 mm 3 mps 740 mmHg 58%
    22:00 +10°C° 0 mm 3 mps 740 mmHg 60%
    23:00 +8°C° 0 mm 4 mps 740 mmHg 62%

    22 October, Monday

    Time Temperature Precipitation Wind Pressure Humidity
    00:00 +9°C° 0 mm 3 mps 740 mmHg 64%
    01:00 +8°C° 0 mm 3 mps 740 mmHg 66%
    02:00 +8°C° 0 mm 3 mps 740 mmHg 68%
    03:00 +7°C° 0 mm 3 mps 740 mmHg 69%
    04:00 +7°C° 0 mm 3 mps 740 mmHg 71%
    05:00 +7°C° 0 mm 3 mps 740 mmHg 72%
    06:00 +7°C° 0 mm 3 mps 740 mmHg 72%
    07:00 +6°C° 0 mm 4 mps 740 mmHg 72%
    08:00 +6°C° 0 mm 4 mps 741 mmHg 72%
    09:00 +8°C° 0 mm 4 mps 741 mmHg 67%
    10:00 +11°C° 0 mm 4 mps 741 mmHg 62%
    11:00 +12°C° 0 mm 5 mps 741 mmHg 57%
    12:00 +13°C° 0 mm 5 mps 740 mmHg 55%
    13:00 +14°C° 0 mm 5 mps 740 mmHg 53%
    14:00 +15°C° 0 mm 4 mps 739 mmHg 51%
    15:00 +14°C° 0 mm 4 mps 739 mmHg 53%
    16:00 +13°C° 0 mm 4 mps 739 mmHg 56%
    17:00 +13°C° 0 mm 3 mps 739 mmHg 58%
    18:00 +12°C° 0 mm 3 mps 739 mmHg 61%
    19:00 +11°C° 0 mm 3 mps 739 mmHg 64%
    20:00 +10°C° 0 mm 3 mps 739 mmHg 67%
    21:00 +9°C° 0 mm 3 mps 738 mmHg 69%
    22:00 +9°C° 0 mm 3 mps 738 mmHg 71%
    23:00 +8°C° 0 mm 3 mps 738 mmHg 72%

    23 October, Tuesday

    Time Temperature Precipitation Wind Pressure Humidity
    00:00 +8°C° 0 mm 2 mps 738 mmHg 73%
    01:00 +8°C° 0 mm 2 mps 738 mmHg 74%
    02:00 +7°C° 0 mm 2 mps 737 mmHg 75%
    03:00 +7°C° 0 mm 2 mps 737 mmHg 76%
    04:00 +7°C° 0 mm 2 mps 737 mmHg 77%
    05:00 +6°C° 0 mm 2 mps 737 mmHg 78%
    06:00 +6°C° 0 mm 2 mps 737 mmHg 76%
    07:00 +7°C° 0 mm 2 mps 737 mmHg 74%
    08:00 +7°C° 0 mm 3 mps 737 mmHg 71%
    09:00 +9°C° 0 mm 3 mps 737 mmHg 64%
    10:00 +10°C° 0 mm 3 mps 737 mmHg 58%
    11:00 +12°C° 0 mm 3 mps 737 mmHg 51%
    12:00 +12°C° 0 mm 3 mps 736 mmHg 49%
    13:00 +13°C° 0 mm 3 mps 736 mmHg 47%
    14:00 +14°C° 0 mm 3 mps 736 mmHg 45%
    15:00 +13°C° 0 mm 3 mps 736 mmHg 48%
    16:00 +13°C° 0 mm 2 mps 735 mmHg 51%
    17:00 +12°C° 0 mm 2 mps 735 mmHg 54%
    18:00 +10°C° 0 mm 2 mps 736 mmHg 57%
    19:00 +10°C° 0 mm 2 mps 736 mmHg 60%
    20:00 +9°C° 0 mm 2 mps 736 mmHg 63%
    21:00 +8°C° 0 mm 2 mps 736 mmHg 64%
    22:00 +8°C° 0 mm 2 mps 736 mmHg 65%
    23:00 +7°C° 0 mm 2 mps 736 mmHg 66%

    24 October, Wednesday

    Time Temperature Precipitation Wind Pressure Humidity
    00:00 +7°C° 0 mm 2 mps 736 mmHg 68%
    01:00 +5°C° 0 mm 3 mps 735 mmHg 70%
    02:00 +5°C° 0 mm 3 mps 735 mmHg 73%
    03:00 +4°C° 0 mm 3 mps 735 mmHg 76%
    04:00 +5°C° 0 mm 2 mps 735 mmHg 79%
    05:00 +4°C° 0 mm 2 mps 735 mmHg 82%
    06:00 +5°C° 0 mm 2 mps 734 mmHg 81%
    07:00 +5°C° 0 mm 2 mps 734 mmHg 79%
    08:00 +5°C° 0 mm 2 mps 734 mmHg 77%
    09:00 +7°C° 0 mm 2 mps 733 mmHg 68%
    10:00 +8°C° 0 mm 2 mps 733 mmHg 59%
    11:00 +10°C° 0 mm 3 mps 732 mmHg 50%
    12:00 +11°C° 0 mm 4 mps 731 mmHg 47%
    13:00 +12°C° 0 mm 4 mps 730 mmHg 44%
    14:00 +13°C° 0 mm 5 mps 729 mmHg 40%
    15:00 +13°C° 0 mm 5 mps 728 mmHg 38%
    16:00 +13°C° 0 mm 5 mps 728 mmHg 36%
    17:00 +12°C° 0 mm 5 mps 727 mmHg 33%
    18:00 +11°C° 0 mm 6 mps 726 mmHg 37%
    19:00 +10°C° 0 mm 6 mps 726 mmHg 41%
    20:00 +10°C° 0 mm 7 mps 725 mmHg 45%
    21:00 +10°C° 0.3 mm 7 mps 725 mmHg 50%
    22:00 +10°C° 0.3 mm 7 mps 725 mmHg 56%
    23:00 +9°C° 0.3 mm 7 mps 725 mmHg 61%
    Show more